Location: Bh?msi
(30.5304°N, 76.0742°E)
Time: 21:28:35
(UTC+00:00)

Daily predictions for brighter satellites

Satellite Brightness Start Highest point End
(mag) Time Altitude Azimuth Time Altitude Azimuth Time Altitude Azimuth
Meteor 1-27 Rocket 3.9 14:06:39 10° S 14:12:26 59° E 14:18:12 10° NNE
STARLINK-1208 4.3 14:10:21 10° S 14:14:04 33° SE 14:17:47 10° ENE
Cosmos 2084 Rocket 3.5 14:13:31 10° SSW 14:17:38 55° ESE 14:21:49 10° NE
Cosmos 1666 4.1 14:15:00 10° NNE 14:17:59 21° ENE 14:20:57 10° SE
Cosmos 1862 Rocket 4.1 14:14:21 10° SSE 14:18:29 40° E 14:22:38 10° NNE
STARLINK-1271 4.1 14:15:13 10° SSW 14:19:02 37° SE 14:22:51 10° ENE
SJ-6B 3.8 14:18:42 10° SE 14:21:57 28° ENE 14:25:10 10° NNE
STARLINK-1154 4.0 14:20:05 10° SSW 14:23:59 42° SE 14:27:53 10° ENE
Cosmos 1733 Rocket 3.9 14:20:45 10° NNE 14:24:38 31° E 14:28:28 10° SE
MOS 1 Rocket 3.6 14:20:50 10° NNE 14:24:57 39° E 14:28:57 10° SSE
CZ-2C R/B 3.2 14:20:24 10° SSE 14:25:34 72° ENE 14:31:04 10° N
H-2A R/B 2.0 14:20:53 10° SSE 14:25:46 70° ENE 14:30:48 10° N
SJ-11-01 4.4 14:21:04 10° SSE 14:25:47 85° WSW 14:30:31 10° NNW
STARLINK-1173 3.7 14:22:46 10° NW 14:26:18 56° SW 14:29:49 10° SSE
STARLINK-1197 3.8 14:24:58 10° SSW 14:28:55 47° SE 14:32:55 10° NE
Cosmos 44 3.3 14:24:16 10° NNW 14:29:04 87° ENE 14:34:07 10° SSE
GOES 2 Rocket 4.2 14:20:53 10° W 14:29:11 76° S 14:35:20 10° E
Cosmos 2233 Rocket 4.2 14:24:18 10° N 14:30:27 78° W 14:36:37 10° S
Resurs 01 Rocket 3.6 14:29:25 10° E 14:31:32 13° ENE 14:33:39 10° NE
STARLINK-1136 4.0 14:29:33 10° NW 14:32:59 46° SW 14:36:25 10° SSE
STARLINK-1198 3.7 14:29:51 10° SSW 14:33:53 54° SE 14:37:55 10° NE
STARLINK-1212 4.3 14:31:33 10° WSW 14:34:31 42° NW 14:37:29 10° NNE
FREGAT/IRIS 2.4 14:32:17 10° SSE 14:34:53 54° ENE 14:37:31 10° N
STARLINK-1105 4.3 14:32:02 10° WSW 14:34:59 42° NW 14:37:57 10° NNE
STARLINK-1247 4.4 14:32:56 10° WSW 14:35:53 41° NW 14:38:51 10° NNE
STARLINK-1227 4.4 14:33:25 10° WSW 14:36:21 40° NW 14:39:18 10° NNE
STARLINK-1226 4.4 14:34:18 10° WSW 14:37:13 39° NW 14:40:10 10° NNE
STARLINK-1199 3.6 14:34:48 10° SSW 14:38:52 62° SE 14:42:57 10° NE
Hubble Space Telescope 1.0 14:36:37 10° WSW 14:40:38 51° S 14:44:09 13° E
Delta 128 4.3 14:35:44 10° WSW 14:41:55 60° S 14:46:51 11° E
IRS-1A Rocket 4.4 14:36:19 10° SSE 14:42:12 84° ENE 14:48:01 10° NNW
STARLINK-1210 3.5 14:39:43 10° SW 14:43:49 70° SE 14:47:56 10° NE
Cosmos 1184 Rocket 4.2 14:42:35 10° NNW 14:45:35 37° W 14:48:33 10° SSW
STARLINK-1164 4.5 14:43:12 10° NNW 14:47:05 38° NE 14:49:50 17° ESE
STARLINK-1219 3.5 14:44:40 10° SW 14:48:47 79° SE 14:52:56 10° NE
MONITOR-E 3.5 14:48:11 17° SSE 14:50:02 78° ENE 14:52:36 10° N
STARLINK-1182 4.3 14:48:07 10° NNW 14:52:05 42° NE 14:54:37 19° ESE
Cosmos 1703 Rocket 4.3 14:49:32 16° SE 14:52:20 31° E 14:56:09 10° NNE
USA 186 1.9 14:50:54 11° S 14:52:57 47° W 14:55:16 10° NNW
STARLINK-1211 3.6 14:49:37 10° SW 14:53:44 89° SE 14:57:53 10° NE
DMSP B5D2-2 4.0 14:48:35 10° NNE 14:53:53 77° ESE 14:59:08 10° S
Cosmos 2251 Rocket 3.7 14:51:33 10° N 14:56:42 56° ENE 15:00:23 19° SE
STARLINK-1163 4.1 14:53:02 10° NNW 14:57:03 47° NE 14:59:23 22° ESE
Delta 198 4.2 14:54:31 10° SW 14:58:06 28° S 14:59:17 23° SE
STARLINK-1245 3.7 14:54:36 10° SW 14:58:44 81° NW 15:02:53 10° NE
Cosmos 2346 Rocket 4.5 14:53:06 10° S 14:59:00 59° E 15:05:00 10° NNE
Ariane Rocket 3.5 14:54:16 10° S 14:59:14 59° WSW 15:04:14 10° NNW
MetOp-A 4.2 14:55:09 15° SSE 14:59:33 59° ENE 15:04:49 10° N
Cosmos 1943 4.4 14:56:43 10° NW 15:01:55 39° WSW 15:07:05 10° S
STARLINK-1172 4.0 14:58:00 10° NNW 15:02:03 53° NE 15:04:11 25° ESE
STARLINK-1233 3.8 14:59:35 10° SW 15:03:41 72° NW 15:07:50 10° NE
DELTA 2 R/B (1) 3.7 14:59:13 10° WNW 15:04:43 66° SSW 15:08:09 23° SE
STARLINK-1145 3.8 15:02:56 10° NW 15:07:02 60° NE 15:08:58 29° ESE
BREEZE M DEB (TANK) 3.0 15:04:45 10° NNW 15:07:13 29° NE 15:07:43 26° ENE
ARGOS 3.8 15:02:05 10° S 15:07:19 55° W 15:12:35 10° NNW
STARLINK-1204 4.1 15:04:36 10° SW 15:08:41 64° NW 15:12:48 10° NE
STARLINK-1161 3.7 15:07:52 10° NW 15:11:59 68° NE 15:13:43 33° ESE
NOSS 2-3 (E) 3.4 15:08:36 10° SSW 15:12:43 86° ESE 15:17:11 10° NNE
Cosmos 2056 Rocket 3.7 15:08:45 15° S 15:12:46 44° ESE 15:17:35 10° NNE
Cosmos 1908 Rocket 4.1 15:08:36 10° N 15:12:48 41° E 15:14:19 30° SE
Cosmos 1743 3.5 15:09:25 10° NNE 15:12:50 31° E 15:13:22 30° E
CZ-2C R/B 2.9 15:07:36 10° N 15:13:13 75° WNW 15:18:47 10° SSW
STARLINK-1238 4.3 15:09:34 10° SW 15:13:38 57° NW 15:17:43 10° NE
Resurs 1-3 3.6 15:11:22 26° SSE 15:13:46 64° ENE 15:18:06 10° N
Meteor 1-19 Rocket 4.5 15:11:52 21° SSE 15:15:13 45° E 15:20:34 10° NNE
SEDSat Delta rocket 4.0 15:08:43 10° W 15:15:33 83° N 15:20:44 17° E
BREEZE M DEB (TANK) 4.2 15:01:17 10° SW 15:16:27 85° NW 15:20:24 10° NE
STARLINK-1160 3.6 15:12:48 10° NW 15:16:57 76° NE 15:18:30 37° SE
Cosmos 2278 Rocket 2.8 15:19:02 27° SE 15:20:59 35° ESE 15:26:04 10° NE
Cosmos 2242 Rocket 3.9 15:17:08 10° SSW 15:21:30 67° W 15:25:53 10° N
STARLINK-1170 3.5 15:17:48 10° NW 15:21:57 86° NE 15:23:18 42° SE
Meteor 1-18 Rocket 4.1 15:19:46 15° S 15:24:22 70° E 15:29:55 10° NNE
Cosmos 1975 4.2 15:22:05 10° NNE 15:25:02 23° ENE 15:25:02 23° ENE
STARLINK-1150 3.5 15:22:47 10° NW 15:26:55 84° SW 15:28:05 46° SE
Okean 1 3.3 15:25:34 23° S 15:28:03 84° W 15:32:06 10° N
Cosmos 389 Rocket 3.1 15:29:01 19° SSW 15:31:16 53° W 15:34:39 10° N
STARLINK-1151 3.6 15:27:46 10° NW 15:31:54 74° SW 15:32:53 50° SSE
NOSS 2-3 (D) 3.9 15:28:34 10° SW 15:32:39 61° WNW 15:37:05 10° NNE
Cosmos 44 Rocket 3.7 15:30:16 10° NNW 15:35:02 50° ENE 15:36:16 40° ESE
STARLINK-1133 3.7 15:32:45 10° NW 15:36:52 65° SW 15:37:39 51° S
Orbus 7S 4.0 15:34:17 10° WSW 15:37:25 48° SSE 15:38:24 42° SE
ASTEX 1 4.3 15:33:38 12° SSW 15:37:51 46° W 15:42:33 10° NNW
STARLINK-1139 3.9 15:37:46 10° NW 15:41:50 57° SW 15:42:27 51° SSW
STARLINK-1174 4.0 15:42:46 10° NW 15:46:47 50° SW 15:47:13 48° SSW
Cosmos 2034 Rocket 4.1 15:40:42 10° N 15:46:50 72° W 15:50:33 25° S
Cosmos 1420 Rocket 4.1 15:50:31 51° ESE 15:50:40 51° ESE 15:55:42 10° NNE
STARLINK-1149 4.2 15:47:46 10° NW 15:51:44 45° SW 15:51:59 44° SW
SPOT 3 Rocket 4.5 15:49:42 21° SSW 15:52:46 43° W 15:57:39 10° NNW
Meteor 2-4 Rocket 3.6 15:52:56 53° SE 15:53:55 63° E 15:59:12 10° NNE
IGS 5A 4.3 15:54:49 37° NE 15:54:49 37° NE 15:58:04 10° N
Cosmos 407 Rocket 3.6 15:51:22 10° N 15:56:37 55° ENE 15:57:10 53° E
STARLINK-1180 4.5 15:52:50 10° WNW 15:56:42 39° SW 15:56:48 39° SW
USA 245 4.1 15:57:59 40° NE 15:57:59 40° NE 16:00:32 10° N
Cosmos 1356 4.4 15:54:12 10° N 15:56:37 42° N 15:56:37 42° N
Okean 3 3.9 15:58:30 48° NE 15:58:30 48° NE 16:01:55 10° NNE
COSMOS 2406 4.1 15:54:05 10° N 15:59:17 33° ENE 15:59:47 33° ENE
Cosmos 1607 4.2 15:53:20 10° NNW 15:59:42 67° WSW 16:01:57 41° S
SPOT 1/Viking Rocket 4.0 16:00:38 43° ENE 16:00:43 43° ENE 16:05:36 10° N
Cosmos 2221 Rocket 3.9 16:02:22 54° NE 16:02:22 54° NE 16:06:08 10° NNE
Cosmos 1515 4.4 16:01:23 47° WSW 16:01:49 50° W 16:05:32 10° N
Cosmos 371 Rocket 4.4 16:04:17 30° NE 16:04:17 30° NE 16:07:06 10° NNE
Okean 1-7 4.5 16:01:27 18° SW 16:04:01 34° W 16:07:55 10° NNW
Resurs 01 Rocket 2.6 16:06:35 36° SW 16:07:36 42° W 16:11:50 10° NNW
SPOT 5 4.0 16:14:47 33° NE 16:14:47 33° NE 16:18:49 10° N
MetOp-B 4.2 16:13:45 61° SSW 16:14:36 74° WSW 16:19:58 10° NNW
Cosmos 2279 Rocket 4.3 16:08:49 10° N 16:14:46 45° E 16:14:48 45° E
Cosmos 1190 Rocket 3.9 16:13:07 10° NNW 16:18:11 74° NE 16:18:11 74° NE
Aureole 1 Rocket 3.4 16:16:27 10° NNW 16:20:47 76° NE 16:20:47 76° NE
Hubble Space Telescope 2.5 16:17:36 10° W 16:19:30 26° WSW 16:19:30 26° WSW
Sich 1 Rocket 3.9 16:17:35 10° N 16:21:33 66° NNW 16:21:33 66° NNW
GOES 2 Rocket 3.9 16:17:10 10° W 16:23:25 58° SW 16:23:25 58° SW
Cosmos 1634 Rocket 4.0 16:22:53 10° N 16:29:11 77° W 16:30:15 62° SSW
Cosmos 1140 Rocket 3.5 16:25:54 10° NNW 16:30:37 74° N 16:30:37 74° N
ATLAS 3B CENTAUR R/B 3.5 16:22:30 10° WSW 16:31:17 40° SSW 16:31:17 40° SSW
Landsat 7 4.2 16:34:36 59° WNW 16:34:36 59° WNW 16:38:46 10° NNW
Cosmos 909 Rocket 4.0 16:29:28 10° NNW 16:36:46 89° WSW 16:37:18 77° SSE
Cosmos 2082 Rocket 3.6 16:34:41 10° N 16:38:46 26° NE 16:38:46 26° NE
ERS-1 Rocket 3.4 16:40:30 57° N 16:40:30 57° N 16:44:32 10° N
Okean 2 Rocket 4.2 16:35:14 10° N 16:38:06 40° N 16:38:06 40° N
Spot 2 Rocket 4.3 16:44:45 42° W 16:44:45 42° W 16:49:21 10° NNW
Cosmos 1954 Rocket 4.5 16:40:22 10° NNW 16:44:34 56° N 16:44:34 56° N
Cosmos 1833 Rocket 3.3 16:43:15 10° N 16:47:45 48° NNE 16:47:45 48° NNE
SeaSat 1 3.8 16:46:32 10° NNE 16:49:01 30° NNE 16:49:01 30° NNE
SEDSat Delta rocket 4.3 16:55:42 10° W 17:00:51 55° W 17:00:51 55° W
Cosmos 2278 Rocket 4.2 17:00:43 11° WSW 17:05:02 25° WNW 17:09:38 10° N
Terra 3.4 17:20:45 32° NNW 17:20:45 32° NNW 17:23:21 10° NNW
Lacrosse 5 3.9 17:23:41 10° NNW 17:26:29 23° NNE 17:26:29 23° NNE
ATLAS 2AS CENTAUR R/B 3.9 18:13:43 38° ENE 18:13:43 38° ENE 18:18:40 10° NE
Cosmos 2082 Rocket 4.2 18:18:26 10° NW 18:20:37 21° WNW 18:20:37 21° WNW
Cosmos 2369 Rocket 3.9 18:33:43 30° N 18:33:43 30° N 18:36:33 10° N
Cosmos 1943 Rocket 4.1 18:44:38 24° NNW 18:44:38 24° NNW 18:47:31 10° N
COSMOS 2455 4.5 19:02:18 28° NE 19:02:18 28° NE 19:05:04 10° NNE
USA 215 4.4 19:11:09 35° NW 19:11:09 35° NW 19:14:42 10° NW
NOSS 3-2 (C) 4.3 19:24:33 10° NNW 19:32:21 66° NE 19:32:21 66° NE
SL-16 R/B 4.3 19:40:46 21° E 19:41:47 22° ENE 19:46:20 10° NNE
ATLAS 3B R/B 4.1 19:42:27 10° N 19:48:29 32° NE 19:51:20 24° E
CENTAUR R/B 3.2 19:44:47 10° NNW 19:53:15 77° ENE 19:53:28 76° ENE
ATLAS 2AS CENTAUR R/B 4.2 20:01:06 30° WNW 20:02:12 31° NW 20:09:08 10° N
ATLAS CENTAUR R/B 4.3 20:08:27 15° N 20:08:27 15° N 20:09:21 10° N
CZ-2D R/B 3.1 20:22:49 10° NNE 20:26:17 42° NNE 20:26:17 42° NNE
ADEOS II 3.7 20:27:24 10° NE 20:31:18 27° E 20:31:18 27° E
CZ-4C R/B 3.6 20:35:11 27° ENE 20:35:11 27° ENE 20:38:15 10° NE
BREEZE M DEB (TANK) 4.3 20:35:00 70° S 20:35:59 78° SE 21:04:07 10° NE
Resurs 1-4 Rocket 2.9 20:33:14 10° N 20:36:56 46° N 20:36:56 46° N
Cosmos 1656 4.1 20:44:02 59° NE 20:44:02 59° NE 20:48:38 10° NNE
NPP 4.2 20:39:22 10° N 20:43:27 53° N 20:43:27 53° N
ARIANE 5 R/B 4.3 20:41:53 10° NE 20:45:42 21° E 20:45:54 21° E
Cosmos 1709 Rocket 4.0 20:47:49 73° NE 20:47:49 73° NE 20:53:30 10° N
SL-19 R/B 4.5 20:49:47 77° NNE 20:49:47 77° NNE 20:55:45 10° NNW
Meteor 2-10 Rocket 4.0 20:57:34 10° N 21:02:41 53° E 21:02:43 53° E
SJ 16-02 2.8 21:03:55 10° N 21:07:55 33° ENE 21:08:33 31° E
Cosmos 1980 Rocket 3.4 21:08:20 30° ESE 21:09:17 32° ESE 21:14:11 10° NE
Alouette 2 Rocket 4.4 21:06:46 10° N 21:11:48 51° ENE 21:11:48 51° ENE
Cosmos 2219 3.5 21:09:23 10° NNW 21:14:59 61° ENE 21:16:49 41° SE
FALCON 9 R/B 4.2 21:11:19 20° WNW 21:17:18 77° NNE 21:49:30 10° E
IRS-P3 Rocket 4.5 21:18:23 10° N 21:23:41 77° WNW 21:23:41 77° WNW
SL-16 R/B 3.0 21:25:51 43° WNW 21:25:51 43° WNW 21:30:52 10° NNW
USA 234 3.5 21:21:02 10° NE 21:27:26 57° SE 21:29:03 46° S
Cosmos 2074 Rocket 4.3 21:26:17 38° SSE 21:28:37 61° E 21:34:48 10° NNE
IRS-1C 3.9 21:23:48 10° NNE 21:29:09 89° W 21:29:34 77° SSW
CRYOSAT 2 4.3 21:24:34 10° N 21:29:28 81° E 21:29:37 80° SE
Cosmos 2297 Rocket 2.4 21:25:15 10° NNW 21:30:53 67° ENE 21:34:16 24° SSE
Cosmos 2278 3.8 21:30:22 56° SSE 21:31:21 67° ESE 21:36:58 10° NNE
Meteor 1-11 4.3 21:31:16 53° SSE 21:32:32 72° E 21:38:07 10° NNE
Cosmos 540 Rocket 3.4 21:32:52 66° SSE 21:33:24 73° ESE 21:38:32 10° NNE
ATLAS CENTAUR R/B 4.2 21:30:56 10° NNW 21:34:56 41° ENE 21:44:26 10° SE
ERS-2 4.0 21:35:21 22° ESE 21:36:44 29° ENE 21:39:56 10° NNE
ATLAS 3B R/B 3.1 21:32:45 10° NW 21:38:27 41° W 21:38:27 41° W
Cosmos 2184 Rocket 4.0 21:37:30 40° SSE 21:39:53 74° E 21:46:02 10° N
Cosmos 990 Rocket 4.1 21:36:53 10° NNW 21:42:09 73° ENE 21:44:52 29° SSE
Cosmos 841 Rocket 3.4 21:44:10 66° SW 21:44:51 78° WNW 21:50:07 10° NNE
COBE Rocket 4.4 21:48:30 20° SSE 21:51:47 58° ENE 21:56:41 10° N
Meteor 1-28 Rocket 3.8 21:54:03 34° SE 21:55:23 54° ENE 21:59:06 10° N
CZ-2D R/B 3.4 21:52:50 10° NNE 21:57:00 86° ESE 21:57:42 62° S
Cosmos 2181 Rocket 4.1 21:52:10 10° NNW 21:58:27 59° W 22:00:53 37° SSW
SL-08 R/B 3.1 21:57:18 43° S 21:58:51 81° WSW 22:03:32 10° NNW
Cosmos 1697 Rocket 3.3 21:59:43 36° W 22:00:48 40° WNW 22:06:06 10° N
Cosmos 1455 4.2 21:58:27 10° NNW 21:59:37 17° NW 21:59:37 17° NW
Cosmos 2227 Rocket 2.1 22:00:47 10° NNW 22:06:24 67° WSW 22:10:44 17° S
SL-16 R/B 4.0 22:01:46 10° SSE 22:06:24 27° ESE 22:11:04 10° NE
Cosmos-2242 3.7 22:03:32 10° NNW 22:06:55 36° WNW 22:06:55 36° WNW
STARLINK-28 3.9 22:07:49 39° SE 22:07:49 39° SE 22:10:48 10° ENE
Cosmos 2221 4.1 22:05:33 10° NNE 22:09:30 34° E 22:13:27 10° SE
Skynet4D Del rocket 4.0 22:09:17 37° SSW 22:10:42 45° SSE 22:15:49 10° E
ADEOS II 3.2 22:07:04 10° NNW 22:11:24 27° WNW 22:12:15 26° W
Cosmos 2154 Rocket 4.0 22:07:27 22° S 22:11:47 85° E 22:18:05 10° N
Cosmos 1400 Rocket 2.8 22:08:17 10° N 22:12:25 85° E 22:14:41 26° S
MSX 4.3 22:07:35 10° NNE 22:13:14 57° E 22:18:09 14° S
CZ-4C R/B 3.6 22:12:36 17° SSE 22:15:12 56° ENE 22:18:44 10° N
STARLINK-41 3.9 22:19:33 33° SSE 22:20:03 36° SE 22:22:59 10° ENE
CZ-4C R/B 3.4 22:20:22 19° WNW 22:22:08 22° NW 22:26:22 10° N
STARLINK-33 3.3 22:24:04 44° S 22:24:43 54° SE 22:27:51 10° NE
ARIANE 5 R/B 3.4 22:20:20 10° N 22:24:45 32° WNW 22:26:14 27° WSW
H-2A R/B 1.9 22:21:52 15° S 22:25:20 81° WSW 22:29:42 10° NNW
GPS 2-04 Rocket1 3.7 22:28:04 29° SSW 22:28:04 29° SSW 22:31:14 10° SSE
Meteor 1-27 4.1 22:22:14 10° N 22:27:48 83° W 22:33:21 10° S
Cosmos 2285 Rocket 4.0 22:24:37 10° NNW 22:30:54 65° WSW 22:37:07 10° S
NOSS 2-1 (E) 4.4 22:28:53 16° S 22:31:06 31° ESE 22:34:09 10° NE
Cosmos 1315 Rocket 3.9 22:28:25 10° N 22:32:10 43° E 22:35:53 10° SSE
STARLINK-66 2.9 22:32:14 42° SSW 22:33:10 75° SE 22:36:21 10° NE
Cosmos 1898 Rocket 4.2 22:29:38 10° NW 22:34:22 33° W 22:36:46 23° SW
CZ-2C R/B 3.0 22:31:00 10° N 22:34:33 46° WNW 22:35:53 31° SW
deb Chang Zheng 4 3.7 22:31:29 10° NNE 22:35:47 73° ESE 22:39:28 14° S
STARLINK-1228 3.2 22:32:54 10° NW 22:36:07 47° SW 22:39:20 10° SSE
SL-24 DEB 4.1 22:32:12 10° N 22:36:50 76° W 22:40:40 15° SSW
IDEFIX/ARIANE 42P 2.8 22:32:19 10° N 22:37:26 53° WNW 22:40:50 21° SW
STARLINK-1234 3.0 22:35:50 10° NW 22:38:50 45° SW 22:41:49 10° SSE
Cosmos 2058 2.8 22:36:13 17° S 22:39:21 85° W 22:43:33 10° N
STARLINK-1212 2.7 22:37:08 10° NW 22:40:13 73° SW 22:43:18 10° SE
STARLINK-1105 2.7 22:37:36 10° NW 22:40:41 72° SW 22:43:45 10° SE
STARLINK-1209 3.3 22:37:51 10° WNW 22:40:46 39° SW 22:43:44 10° SSE
ASTRO E2 3.6 22:40:44 26° SW 22:41:20 28° SSW 22:44:45 10° SE
STARLINK-1247 2.7 22:38:31 10° NW 22:41:37 70° SW 22:44:42 10° SE
STARLINK-1227 2.7 22:38:59 10° NW 22:42:03 69° SW 22:45:06 10° SE
STARLINK-1226 2.7 22:39:50 10° NW 22:42:55 67° SW 22:45:59 10° SSE
BREEZE-M DEB (TANK) 4.4 22:41:44 10° NNW 22:43:35 22° NE 22:46:30 10° E
STARLINK-1215 2.7 22:40:47 10° NW 22:43:52 64° SW 22:46:56 10° SSE
STARLINK-75 2.9 22:42:49 30° SW 22:44:15 88° SE 22:47:29 10° NE
Lacrosse 4 Rocket 1.8 22:40:18 10° NNW 22:44:32 66° ENE 22:48:39 10° SSE
Cosmos 1937 Rocket 4.0 22:40:04 10° NW 22:44:53 38° W 22:49:43 10° SSW
STARLINK-1217 2.8 22:42:33 10° NW 22:45:37 61° SW 22:48:41 10° SSE
Cosmos 2360 Rocket 4.3 22:41:27 10° SSE 22:45:48 24° ESE 22:50:10 10° NE
SJ 16-02 3.2 22:43:37 10° WNW 22:45:28 15° W 22:45:28 15° W
STARLINK-1229 2.8 22:43:28 10° NW 22:46:32 59° SW 22:49:36 10° SSE
STARLINK-1270 2.8 22:44:21 10° NW 22:47:24 57° SW 22:50:28 10° SSE
STARLINK-1189 2.9 22:46:12 10° NW 22:49:14 53° SW 22:52:16 10° SSE
STARLINK-1188 2.9 22:47:05 10° NW 22:50:07 52° SW 22:53:08 10° SSE
STARLINK-1235 3.4 22:47:53 10° WNW 22:50:44 34° SW 22:53:35 10° SSE
STARLINK-1187 3.2 22:48:14 10° WNW 22:51:11 41° SW 22:54:07 10° SSE
STARLINK-1301 3.1 22:50:01 22° SW 22:51:59 77° SE 22:55:19 10° NE
Cosmos 1241 Rocket 4.5 22:46:51 13° SSW 22:52:30 84° ESE 22:58:42 10° NNE
STARLINK-1191 3.0 22:49:34 10° NW 22:52:33 47° SW 22:55:33 10° SSE
ADEOS 4.0 22:47:44 10° NNE 22:52:55 62° ESE 22:58:03 10° S
STARLINK-1307 3.2 22:50:52 20° SSW 22:52:59 66° SE 22:56:18 10° NE
Cosmos 1980 Rocket 3.4 22:50:07 17° WSW 22:53:11 26° WNW 22:57:53 10° N
STARLINK-1221 3.0 22:50:27 10° NW 22:53:26 46° SW 22:56:25 10° SSE
STARLINK-80 3.3 22:51:06 21° SW 22:53:35 89° ESE 22:57:22 10° NE
STARLINK-1222 3.1 22:51:20 10° NW 22:54:19 45° SW 22:57:17 10° SSE
STARLINK-22 2.9 22:52:28 22° SW 22:54:23 83° SE 22:57:35 10° NE
STARLINK-1290 3.2 22:53:00 20° SSW 22:55:12 71° SE 22:58:33 10° NE
STARLINK-1214 3.1 22:52:16 10° NW 22:55:14 43° SW 22:58:10 10° SSE
GPS 2-14 Rocket1 4.2 22:54:37 16° SSW 22:55:51 18° S 22:58:29 10° SE
Yuri Rocket 4.4 22:47:36 13° W 22:56:02 75° S 23:02:36 10° E
Nadezhda 3 Rocket 4.0 22:49:56 10° NNW 22:56:07 63° W 23:02:21 10° S
STARLINK-58 3.8 22:54:01 16° SSW 22:56:16 43° SE 22:59:18 10° NE
Cosmos 1842 Rocket 3.9 22:52:14 10° NNW 22:56:31 45° W 23:00:44 10° SSW
STARLINK-1297 3.1 22:55:01 19° SW 22:57:18 75° SE 23:00:39 10° NE
OFEQ 5 4.5 22:54:42 10° ENE 22:57:22 71° NNW 22:59:07 19° W
Cosmos 2341 Rocket 4.0 22:51:13 10° S 22:57:35 74° W 23:03:58 10° N
STARLINK-1198 4.3 22:54:40 10° NW 22:58:45 58° NE 23:02:50 10° SE
Shenzhou-11 Module 3.9 22:58:22 10° S 22:59:55 16° SE 23:01:32 10° E
Cosmos 1408 2.6 22:56:27 10° S 23:00:09 90° W 23:03:53 10° N
STARLINK-26 3.8 22:58:08 18° WSW 23:00:19 41° NW 23:03:36 10° NNE
Cosmos 2366 rocket 4.4 22:54:28 10° S 23:00:32 64° E 23:06:41 10° NNE
SL-16 Debris 4.3 23:01:05 17° SW 23:03:04 43° SSE 23:09:08 10° E
STARLINK-1199 4.0 22:59:39 10° NW 23:03:46 66° NE 23:07:53 10° SE
Cosmos 1125 Rocket 4.4 22:59:07 10° N 23:04:11 52° ENE 23:09:14 10° SSE
CZ-2C R/B 2.5 23:00:46 10° N 23:05:57 87° WNW 23:11:08 10° SSW
STARLINK-1283 3.6 23:05:11 15° WSW 23:08:04 57° NW 23:11:42 10° NE
STARLINK-1317 3.2 23:05:39 15° SW 23:08:19 65° NW 23:11:42 10° NE
STARLINK-1210 3.8 23:04:36 10° NW 23:08:44 75° NE 23:12:52 10° SE
USA 234 4.3 23:04:24 10° NNE 23:10:09 34° NW 23:15:54 10° W
ERS-2 4.1 23:09:57 12° WSW 23:10:18 12° W 23:11:39 10° WNW
CZ-4B R/B 1.1 23:07:36 10° SSE 23:10:38 87° ENE 23:13:41 10° N
Cosmos 1825 2.2 23:08:53 10° S 23:12:37 83° E 23:16:24 10° N
STARLINK-1219 3.7 23:09:34 10° NW 23:13:43 84° NE 23:17:51 10° SE
Cosmos 2297 Rocket 3.9 23:12:28 10° W 23:14:13 11° W 23:15:55 10° WSW
Centaur D-1AR AC-40 3.2 23:11:58 11° SW 23:14:39 26° SSE 23:19:52 10° ESE
Okean 3 Rocket 3.9 23:11:21 10° S 23:15:48 72° E 23:20:18 10° N
STARLINK-42 4.1 23:14:13 12° WSW 23:16:51 31° NW 23:19:46 10° NNE
STARLINK-1211 3.6 23:14:32 10° NW 23:18:40 86° SW 23:22:48 10° SE
Cosmos 2322 Rocket 2.2 23:17:49 10° SSW 23:23:25 69° WNW 23:29:02 10° NNE
STARLINK-1245 3.5 23:19:32 10° NW 23:23:40 76° SW 23:27:46 10° SE
STARLINK-48 3.5 23:21:56 10° SW 23:25:47 79° SE 23:29:40 10° NE
NOSS 2-1 (C) 3.9 23:24:06 10° SW 23:27:22 33° WNW 23:30:29 10° N
STARLINK-1233 3.6 23:24:31 10° NW 23:28:37 67° SW 23:32:42 10° SSE
Cosmos 2263 Rocket 2.5 23:25:17 10° NNW 23:30:53 75° ENE 23:36:26 10° SSE
CZ-3 R/B 3.4 23:12:53 10° WSW 23:38:38 55° S 23:45:28 10° E
